{"data":{"norad_id":61594,"epoch":"2026-05-25T02:45:57.720096Z","epoch_age_seconds":69071,"freshness":"FRESH","line1":"1 61594U 24188A   26145.11525139  .00000471  00000+0  12928-2 0  9998","line2":"2 61594  87.8907  25.6837 0002339  85.1279 275.0116 13.11416974 81431","mean_motion":13.11416974,"eccentricity":0.0002339,"inclination_deg":87.8907,"raan_deg":25.6837,"arg_perigee_deg":85.1279,"mean_anomaly_deg":275.0116,"bstar":0.0012928,"rev_number":8143,"period_min":109.80489261229,"perigee_km":1215.9059241924,"apogee_km":1219.459248595,"semimajor_km":7595.8195863937,"source":"CELESTRAK","updated_at":"2026-05-25T13:38:22.747721Z"}}